Regional Weather Roundup
Issued by NWS

Home | Current Version | Previous Version | Graphics & Text | Print | Product List | Glossary On
Versions: 1 2 3 4 5 6 7 8 9 10 11 12 13 14 15 16 17 18 19 20 21 22 23 24 25 26 27 28 29 30 31 32 33 34 35 36 37 38 39 40 41 42 43 44 45 46 47 48 49 50
000
ASUS43 KFSD 281102
RWRSD

WEATHER ROUNDUP FOR SOUTH DAKOTA
NATIONAL WEATHER SERVICE SIOUX FALLS SD
600 AM CDT SAT MAR 28 2015

NOTE: "FAIR" INDICATES FEW OR NO CLOUDS BELOW 12,000 FEET WITH NO
SIGNIFICANT WEATHER AND/OR OBSTRUCTIONS TO VISIBILITY.


SDZ001>005-009-010-012>017-281200-
NORTHWEST AND NORTH CENTRAL SOUTH DAKOTA

CITY           SKY/WX    TMP DP  RH WIND       PRES   REMARKS
BUFFALO          N/A     38  32  79 SE7       29.83F
FAITH            N/A     36  30  79 S13       29.93S
MOBRIDGE       CLEAR     24  21  88 E9        29.97S WCI  14
$$

SDZ012>016-024>037-041>051-057-063-072>074-281200-
SOUTHWEST AND SOUTH CENTRAL SOUTH DAKOTA

CITY           SKY/WX    TMP DP  RH WIND       PRES   REMARKS
RAPID CTY ARPT CLEAR     35  29  78 CALM      29.92F
PIERRE         CLEAR     23  22  96 E7        29.98S FOG     WCI  15
CUSTER         PTCLDY    40  25  55 W7        29.98F
PHILIP         CLEAR     27  25  92 CALM      29.95F
PINE RIDGE     PTCLDY    28  25  88 E3        29.95S
SPEARFISH      FAIR      39  28  65 CALM      29.92S
WINNER         FAIR      32  28  85 SE7       29.98S WCI  26
$$

SDZ004>011-016>023-039-040-281200-
NORTHEAST SOUTH DAKOTA

CITY           SKY/WX    TMP DP  RH WIND       PRES   REMARKS
ABERDEEN       CLOUDY    31  26  82 SE9       30.06S WCI  23
WATERTOWN      CLOUDY    28  24  85 S9        30.06S WCI  19
SISSETON         N/A     22  21  96 SE8       30.09S WCI  12
$$

SDZ017-020-022-023-036>040-048>070-281200-
SOUTHEAST SOUTH DAKOTA

CITY           SKY/WX    TMP DP  RH WIND       PRES   REMARKS
SIOUX FALLS    CLOUDY    30  25  81 SE10G22   30.10R WCI  21
HURON          CLOUDY    28  24  85 SE12      30.06S WCI  18
MITCHELL       PTCLDY    27  23  85 SE10      30.07S WCI  17
YANKTON        CLEAR     25  19  80 E6        30.09S WCI  18
$$

ABBREVIATIONS USED IN REMARKS
   TC - TEMPERATURE IN CELSIUS
  WCI - WIND CHILL INDEX
   HX - HEAT INDEX
  VSB - VISIBILITY




USA.gov is the U.S. government's official web portal to all federal, state and local government web resources and services.